Location: Doussal
(55.6167°N, 116.8333°W)
Time: 03:45:51
(UTC+00:00)

METEOR M2 - Pass Details

Date: 17 December 2023
Orbit: 818 x 826 km, 98.4° (Epoch: 25 February)

Event Time Altitude Azimuth Distance (km) Brightness Sun altitude
Rises 02:13:27 0° 216° (SW) 3,357 ? -23.3°
Reaches altitude 10° 02:16:42 10° 236° (WSW) 2,428 ? -23.7°
Maximum altitude 02:20:04 17° 275° (W) 2,003 ? -24.2°
Drops below altitude 10° 02:23:27 10° 315° (NW) 2,437 ? -24.7°
Sets 02:26:44 0° 335° (NNW) 3,374 ? -25.2°
